GFSFLT1_prec_radar_195.txt.gz
Reflectivity
-20 -20 -20 -20 -20 -20 -20 -20 -20 -20 -20 -20 -20 -20 -20 -20 -20 -20 -20 -20 -20 -20 -20 -20 -20 -20 -20 -20 -20 -20 -20 -20
-20 -20 -20 -20 -20 -20 -20 -20 -20 -20 -20 -20 -20 -20 -20 -20 -20 -20 -20 -20 -20 -20 -20 -20 -20 -20 -20 -20 -20 -20 -20 -20
-20 -20 -20 -20 -20 -20 -20 -20 -17 -20 -20 -20 -20 -20 -20 -20 -20 -20 -20 -20 -20 -20 -20 -20 -20 -20 -20 -20 -20 -20 -20 -20
-20 -20 -20 -20 -20 -20 15 16 12 -6 -13 -16 -20 -20 -20 -20 -20 -20 -20 -20 -20 -20 -20 -20 -20 -20 -20 -20 -20 -20 -20 -20
-20 -20 -20 -20 -20 13 15 18 15 14 -7 -4 -20 -20 -20 -20 -20 -20 -20 -20 -20 -20 -20 -20 -20 -20 -20 -20 -20 -20 -20 -20
-20 -20 -20 -20 -10 14 7 12 19 -2 30 -2 2 -20 -20 -20 -20 -20 -20 -20 -20 -20 -20 -20 -20 -20 -20 -20 -20 -20 -20 -20
-20 -20 -20 -20 0 9 14 20 23 36 32 22 -1 -20 -20 -20 -20 -20 -20 -20 -20 -20 -20 -20 -20 -20 -20 -20 -20 -20 -20 -20
-20 -20 -20 -20 -9 20 26 32 42 39 24 12 15 11 -6 -20 -20 -20 -20 -20 -20 -20 -20 -20 -20 -20 -20 -20 -20 -20 -20 -20
-20 -20 -20 -20 5 25 48 42 26 21 14 17 15 12 2 -20 -20 -20 -20 -20 -20 -20 -20 -20 -20 -20 -20 -20 -20 -20 -20 -20
-20 -20 -7 30 34 22 -4 0 -19 0 16 -6 0 1 -8 -20 -20 -20 -20 -20 -20 -20 -20 -20 -20 -20 -20 -20 -20 -20 -20 -20
-15 24 18 14 27 23 19 17 16 8 11 1 -8 -19 -20 -15 -20 -16 -18 -20 -20 -20 -20 -20 -20 -20 -20 -20 -20 -20 -20 -20
-20 -20 -11 -18 3 6 -20 -20 -20 -17 -1 11 2 -18 -20 -13 -11 -7 -20 -20 -20 -20 -20 -20 -20 -20 -20 -20 -20 -20 -20 -20
-20 -20 -19 -7 -20 -18 -4 0 11 5 -5 -8 -7 -4 -1 5 8 -12 -20 -19 -20 -20 -20 -20 -20 -20 -20 -20 -20 -20 -20 -20
-1 -16 -18 -20 -20 -20 -20 -5 -15 -20 -20 -20 -20 4 6 -1 11 0 -19 -19 -13 -20 -20 -20 -20 -20 -20 -20 -20 -20 -20 -20
3 4 -4 -20 -20 -7 -20 -7 -20 -2 -1 -20 -9 -2 -20 -13 18 -1 -19 14 -15 -18 1 -20 -20 -20 -20 -20 -20 -20 -20 -20
-18 -16 -19 -20 -20 -20 -13 -12 -7 19 -7 16 21 1 -18 -20 -15 -9 -18 -4 17 18 27 -0 -20 -20 -20 8 -19 -20 -20 -20
-20 -20 -20 -20 -20 -20 -20 -20 -20 16 19 18 11 -1 4 -20 -20 -20 -17 10 16 30 -3 -19 -20 -20 -1 22 -20 -20 -20 -20
-20 -20 -20 -20 -20 -20 -20 -20 -20 -20 -18 17 16 5 21 6 -9 -20 -20 -3 15 -20 -4 -13 -20 -20 28 -14 -20 -20 -20 -20
-20 -20 -20 -20 -20 -20 -20 -20 -20 -20 -20 14 -13 -1 8 6 33 -7 -18 -20 -20 -20 2 -18 -16 5 2 -16 -16 -20 -20 -20

GFSFLT1_prec_radar_198.txt.gz
Reflectivity
-20 -20 -20 -20 -20 -20 -20 -20 -20 -20 -20 -20 -20 -20 -20 -20 -20 -20 -20 -20 -20 -20 -20 -20 -20 -20 -20 -20 -20 -20 -20 -20
-20 -20 -20 -20 -20 -20 -20 -20 -20 -20 -20 -20 -20 -20 -20 -20 -20 -20 -20 -20 -20 -20 -20 -20 -20 -20 -20 -20 -20 -20 -20 -20
-20 -20 -20 -20 -20 -20 -20 -20 -20 22 -12 -5 -15 -20 -20 -20 -20 -20 -20 -20 -20 -20 -20 -20 -20 -20 -20 -20 -20 -20 -20 -20
-20 -20 -20 -20 -20 -20 -20 -20 4 -20 14 9 -2 -17 -13 -12 -20 -20 -20 -20 -20 -20 -20 -20 -20 -20 -20 -20 -20 -20 -20 -20
-20 -20 -20 -20 -20 -20 -20 -20 9 13 16 22 17 4 20 15 14 -9 -20 -20 -20 -20 -20 -20 -20 -20 -20 -20 -20 -20 -20 -20
-20 -20 -20 -20 -20 -20 -20 -20 15 18 19 8 14 25 25 22 15 10 -0 -3 -20 -20 -20 -20 -20 -20 -20 -20 -20 -20 -20 -20
-20 -20 -20 -20 -20 -20 -20 -14 25 29 36 41 40 38 32 33 31 21 16 11 -1 -18 -20 -20 -20 -20 -20 -20 -20 -20 -20 -20
-20 -20 -20 -20 -20 -20 -20 27 34 33 33 36 40 30 26 31 31 22 9 -8 -4 -16 -20 -20 -20 -20 -20 -20 -20 -20 -20 -20
-20 -20 -20 -20 -20 -2 24 29 27 39 35 35 34 33 23 20 13 3 5 -7 -12 -20 -20 -20 -20 -20 -20 -20 -20 -20 -20 -20
-20 -20 -20 -20 -20 10 22 18 23 33 22 20 21 20 21 16 6 -2 -3 -7 -19 -20 -20 -20 -20 -20 -20 -20 -20 -20 -20 -20
-20 -20 -20 -20 -20 0 8 6 21 5 18 21 4 -9 6 15 16 8 5 -8 -20 -20 -20 -20 -20 -20 -20 -20 -20 -20 -20 -20
-20 -20 -20 -20 -20 -20 -20 -15 -7 7 5 16 4 18 -20 7 10 12 4 -1 4 -20 -3 -20 -20 -20 -20 -20 -20 -20 -20 -20
-20 -20 -20 -20 -20 5 25 -18 2 7 -14 -17 2 -12 17 -20 -19 -12 -1 9 6 -20 -20 -20 -20 -20 -20 -20 -20 -20 -20 -20
-8 -20 -20 -0 -15 -20 9 11 3 11 -20 -20 -10 24 -12 -20 -13 7 -3 -18 -20 -20 -20 -20 -20 -20 -20 -20 -20 -20 -20 -20
-20 -20 -11 -14 -20 -16 -15 9 20 20 -20 -12 14 -20 19 -20 -20 -20 6 5 21 13 -20 -18 -20 -20 -20 -20 -20 -20 -20 -20
-20 -20 -20 -20 -20 -20 -20 -20 -20 -20 -10 20 9 30 14 -20 -20 -20 -20 -20 28 35 9 8 21 -3 6 -16 -20 -20 -20 -20
-20 -20 -20 -20 -20 -20 -20 -20 -20 -20 -20 7 -5 -20 8 16 8 -20 -20 -20 -20 -4 1 12 38 19 -11 -20 -20 -20 -7 -20
-20 -20 -20 -20 -20 -20 -20 -20 -20 -20 -20 -20 -20 1 18 -14 -4 -19 -9 -19 -20 -19 6 34 24 10 -20 -20 -20 -19 -20 -20
-20 -20 -20 -20 -20 -20 -20 -20 -20 -20 -20 -20 -20 -20 -20 -5 24 20 38 24 -16 -14 -10 17 28 -17 -15 -20 -20 -9 -20 -20

GFSFLT1_prec_radar_201.txt.gz
Reflectivity
-20 -20 -20 -20 -20 -20 -20 -20 -20 -20 -15 -20 -20 -20 -20 -20 -16 -20 -6 -20 -20 -20 -20 -20 -20 -20 -20 -20 -20 -20 -20 -20
-20 -20 -20 -20 -20 -20 -20 -20 -20 -20 -19 -16 21 -20 -20 -20 -20 -20 -20 -20 -20 -20 -20 -20 -20 -20 -20 -20 -20 -20 -20 -20
-20 -20 -20 -20 -20 -20 -20 -20 -20 -20 -13 -1 -2 6 -11 -20 -20 -20 -20 -20 -20 -20 -20 -20 -20 -20 -20 -20 -20 -20 -20 -20
-20 -20 -20 -20 -20 -20 -20 -20 -20 -11 14 3 -1 10 -4 -11 -20 -20 -20 -20 -20 -20 -20 -14 -20 -20 -20 -20 -20 -20 -20 -20
-20 -20 -20 -20 -20 -20 -20 -20 -20 17 25 26 22 15 20 18 -13 -20 -6 5 -6 -12 -19 -20 -11 -20 -20 -20 -20 -20 -20 -20
-20 -20 -20 -20 -20 -20 -20 -20 -20 1 24 25 26 24 25 30 31 21 -10 14 20 15 7 8 -18 -6 -20 -20 -20 -20 -20 -20
-19 -20 -20 -20 -20 -20 -20 -20 -20 -8 21 22 31 34 33 41 37 40 37 25 29 28 27 17 13 9 -11 -20 -20 -20 -20 -20
-20 -20 -20 -18 -17 -20 -20 -11 -11 -10 4 14 23 27 27 35 35 31 33 29 30 25 23 14 9 -2 -20 -20 -20 -20 -20 -20
-20 -20 -20 -20 -20 -20 -20 -20 -20 6 10 -6 5 24 24 22 31 29 35 27 29 16 13 17 12 -18 -20 -20 -20 -20 -20 -20
-20 -20 -20 -20 -20 -20 -20 -20 -20 -12 13 20 14 0 -5 16 14 16 9 5 4 2 -1 -7 -20 -20 -20 -20 -20 -20 -20 -20
-20 -20 -20 -20 -20 -20 -20 -2 -20 -20 -20 -3 9 21 13 5 2 13 9 0 16 7 -15 -20 -20 -20 -20 -20 -20 -20 -20 -20
-20 -20 -20 -20 -20 -20 -20 12 -17 18 13 -16 -16 3 11 11 5 18 20 15 4 -5 -9 -20 -20 -12 -10 -17 -20 -20 -20 -20
-20 -20 -20 -20 -20 -20 -20 24 5 26 24 25 6 8 23 9 -19 -7 24 28 29 -5 -20 -20 -12 24 -20 -20 -20 -20 -20 -20
-20 -20 -20 -20 -20 -20 4 9 6 15 25 19 21 18 -19 11 23 -20 -20 -20 -9 7 4 13 -4 26 -16 -20 -20 -20 -20 -20
-20 -20 -20 -20 -20 -20 -8 -7 -0 -13 14 13 25 -1 -4 19 25 11 -20 -6 10 18 18 12 -2 24 4 -20 -20 -20 -20 -20
-20 -20 -20 -20 -20 -20 -20 -20 -20 -20 -20 -6 -2 13 15 23 16 22 -4 -14 -2 -20 -18 20 36 21 15 -1 -12 -20 -20 -20
-20 -20 -20 -20 -20 -20 -20 -20 -20 -20 -20 -20 -20 -20 24 22 19 -17 -16 9 0 24 -10 -11 22 34 38 29 34 14 8 -20
-18 -13 -20 -20 -20 -20 -20 -20 -20 -20 -20 -20 -20 -20 -20 15 13 9 10 17 12 24 4 -6 -1 6 12 32 32 18 -20 -20
-20 -20 -20 -20 -20 -20 -20 -20 -20 -20 -20 -20 -20 -20 -20 -20 -20 -20 15 -16 -3 27 14 -18 -14 3 22 25 5 -1 2 -13

GFSFLT1_prec_radar_204.txt.gz
Reflectivity
-20 -20 -20 -20 -20 -20 -20 -20 -16 -20 -20 -20 -20 -20 -20 -20 -20 -20 -20 -20 -20 -20 -20 -20 -20 -20 -20 -20 -20 -20 -20 -20
-20 -20 -20 -20 -20 -20 -20 -13 -15 -20 -19 -20 -20 -20 -20 -20 -20 -20 -20 -20 -20 -20 -20 -20 -20 -20 -20 -20 -20 -20 -20 -20
-20 -20 -20 -20 -20 -20 -20 2 14 -15 -20 -20 -20 -20 2 -20 -20 -20 -20 -20 -20 -20 -20 -20 -20 -20 -20 -20 -20 -20 -20 -20
-20 -20 -20 -20 -20 -20 -20 -15 -5 6 -20 -20 -4 -12 -20 -14 9 -2 -20 -20 -20 11 -20 -20 -20 -20 -20 -20 -20 -20 -20 -20
-20 -20 -20 -20 -20 -20 -20 -20 -20 -20 -20 -15 19 19 16 -4 9 7 -18 -19 -20 -20 -20 -4 7 -0 -19 -20 -20 -20 -20 -20
-20 -20 -20 -20 -20 -20 -20 -20 -20 -20 2 6 15 22 21 9 14 25 8 24 24 1 8 12 27 22 17 -8 -6 -20 -20 -20
-20 -20 -20 -19 -20 -20 -20 -17 -5 -14 -15 -11 1 14 19 24 28 34 26 37 43 31 37 19 23 25 10 12 12 2 9 -5
-20 -20 -20 -20 -20 -20 -20 -20 -20 -20 -20 -20 -20 -20 9 22 24 16 8 24 16 22 30 33 31 30 26 15 5 4 -6 -3
-20 -20 -20 -20 -20 -20 -20 -20 -20 -20 -20 -20 -20 -18 -20 -19 -9 3 -3 -3 16 25 32 33 31 13 5 12 14 3 -20 -20
-20 -20 -20 -20 -20 -20 -20 -20 -20 -20 -20 -20 -15 2 -17 11 2 17 27 17 24 34 32 19 26 31 26 12 4 -11 0 -19
-20 -20 -20 -20 -20 -20 -20 -20 -20 -20 -20 -20 -20 -20 3 -7 24 35 30 28 28 19 25 18 5 13 3 9 -3 -20 -20 -20
-20 -20 -20 -20 -20 -20 -20 3 26 19 27 -13 16 15 17 18 19 15 26 34 29 14 -4 -17 -19 -14 -16 -18 -20 -20 -20 -20
-20 -20 -20 -20 -20 -20 -20 -16 4 4 -14 33 11 33 33 33 10 20 -7 14 30 21 19 17 17 -7 -14 -17 5 -7 -20 -20
-20 -20 -20 -20 -20 -20 -20 -20 -20 -20 11 14 26 26 31 23 28 2 1 -19 18 8 7 -8 -14 -3 18 16 -9 8 -20 -20
-20 -20 -20 -20 -20 -20 -20 -20 -20 -20 7 17 3 2 12 6 26 16 12 1 -20 -20 -13 4 21 -6 21 7 28 17 -20 -20
-20 -20 -20 -20 -20 -20 -20 -20 -20 -20 -20 -20 -17 3 -8 10 9 15 -17 -10 -17 -20 -20 -20 5 27 36 24 20 32 10 -8
-20 -20 -20 -20 -3 -20 -20 -20 -20 -20 -20 -20 -20 -20 -8 -18 -2 21 -20 -20 -20 -13 -9 -14 -20 -20 -10 10 27 36 29 8
-20 -20 -20 -20 -20 -20 -20 -20 -20 -20 -20 -20 -20 -20 -20 -1 -16 -2 -20 -20 -20 -20 27 26 -5 -20 7 -20 -15 22 23 28
-20 -20 -20 -20 -20 -20 -20 -20 -20 -20 -20 -20 -20 -20 -20 -20 -20 -20 -17 -20 -20 -16 15 -6 -4 -16 -12 -1 -20 -2 13 23